Home > Weather > Pittsburgh > Past weeks

Flag for USA Past Weather in Pittsburgh, Pennsylvania, USA — Yesterday and Last 2 Weeks

Now
74 °F

Mostly cloudy.


Feels Like: 74 °F
Forecast: 69 / 80 °F
Wind: 3 mph from South

Location: Allegheny County Airport

Current Time: Jul 30, 2016 at 4:59:36 PM

Latest Report: Jul 30, 2016 at 3:53 PM


Visibility: 6 mi

Pressure: 29.94 "Hg

Humidity: 82%

Dew Point: 68 °F

Location of PittsburghLocation

Past Weather in Pittsburgh — Graph

°F

Pittsburgh Temperature Yesterday

Maximum temperature yesterday: 83 °F (at 3:53 PM)
Minimum temperature yesterday: 67 °F (at 6:50 AM)
Average temperature yesterday: 74 °F

High & Low Weather Summary for the Past Weeks

 TemperatureHumidityPressure
High93 °F (Jul 25, 2:53 PM)96% (Jul 28, 11:53 PM)30.27 "Hg (Jul 28, 11:53 PM)
Low61 °F (Jul 21, 5:53 AM)25% (Jul 20, 5:53 PM)29.89 "Hg (Jul 25, 5:53 PM)
Average76 °F67%30.04 "Hg
* Reported Jul 15 3:53 PM — Jul 30 3:00 PM, Pittsburgh, Weather by CustomWeather, © 2016

Note: Actual official high and low records may vary slightly from our data, if they occured in-between our weather recording intervals... More about our weather records

Advertising

Pittsburgh Weather History for the Previous 24 Hours

Scroll right to see more
 ConditionsComfort  
Time TempWeatherWind HumidityBarometerVisibility
3:00 PM
Sat, Jul 30
72 °FPartly sunny.5 mph87%29.96 "Hg10 mi
2:53 PM72 °FLow clouds.No wind87%29.94 "Hg7 mi
2:00 PM70 °FLight rain. Fog.6 mph90%29.98 "Hg5 mi
1:53 PM70 °FLight rain. Fog.5 mph90%29.97 "Hg1 mi
1:00 PM69 °FLight rain. Fog.3 mph93%29.98 "Hg1 mi
12:52 PM70 °FRain. Fog.No wind90%29.96 "Hg1 mi
12:04 PM71 °FLight rain. Fog.No wind87%29.99 "Hg2 mi
11:53 AM72 °FMostly cloudy.5 mph87%29.97 "Hg10 mi
11:04 AM70 °FLight rain. Fog.5 mph90%29.99 "Hg3 mi
10:53 AM70 °FHeavy rain. Fog.7 mph87%29.97 "Hg1 mi
10:00 AM70 °FLight rain. Fog.8 mph90%29.97 "Hg2 mi
9:53 AM70 °FLight rain. Fog.8 mph90%29.95 "Hg2 mi
8:53 AM70 °FThunderstorms. Mostly cloudy.3 mph90%29.96 "Hg1 mi
7:53 AM71 °FLight rain. Mostly cloudy.5 mph84%29.94 "Hg2 mi
7:00 AM70 °FPassing clouds.3 mph87%29.95 "Hg2 mi
6:53 AM70 °FPassing clouds.No wind87%29.93 "Hg5 mi
5:53 AM69 °FLight rain. Fog.5 mph87%29.93 "Hg6 mi
4:53 AM70 °FClear.6 mph81%29.92 "Hg7 mi
3:53 AM70 °FPassing clouds.3 mph79%29.92 "Hg8 mi
2:53 AM71 °FPassing clouds.3 mph76%29.94 "Hg9 mi
1:53 AM72 °FClear.5 mph73%29.94 "Hg9 mi
12:53 AM74 °FClear.3 mph67%29.95 "Hg10 mi
11:53 PM
Fri, Jul 29
76 °FPassing clouds.No wind64%29.95 "Hg10 mi
10:53 PM74 °FPassing clouds.3 mph71%29.96 "Hg9 mi
9:53 PM79 °FClear.No wind58%29.94 "Hg10 mi
8:53 PM80 °FSunny.5 mph56%29.94 "Hg10 mi
7:53 PM80 °FSunny.5 mph58%29.93 "Hg10 mi
6:53 PM82 °FSunny.5 mph55%29.92 "Hg10 mi
5:53 PM83 °FSunny.6 mph53%29.91 "Hg10 mi
4:53 PM83 °FSunny.3 mph53%29.92 "Hg10 mi
Weather by CustomWeather, © 2016

See weather overviewHow to use our weather pages